Find OneWeb SL0262

NORAD ID: 48980 Int'l Des: 2021-060 Owner: ONEWEBN Country: UK Constellation: oneweb operational
LEOCIRCULARPOLARONEWEB_TYPE

リアルタイム位置

3D地球を読み込み中...

OneWeb SL0262について

説明を読み込み中...

次回通過

Passes for default location (London). Set your location on the main map for personalized predictions.

高度履歴

Loading altitude history...

軌道要素

1 48980U 21060P 26132.77684758 -.00000080 00000-0 -24404-3 0 9991
2 48980 87.9102 235.8004 0001663 101.1603 258.9715 13.16595355234962
Epoch: May 12, 2026 • Age: 6 hours

現在のステータス

高度 1200.3 km
速度 7.26 km/s
衛星直下点 22.93°N, 2.38°E
打ち上げ日 Jul 1, 2021
運用期間 4.8 years
タイプ internet

技術仕様

分類 Payload
質量 148.00 kg
乾燥質量 140.00 kg
総質量 148.00 kg
長さ 1.30 m
直径 1.00 m
スパン 5.00 m
形状 Trapezoid+2 pan
製造者 ONEWUS
バスタイプ ARROW
フェーズステータス In Orbit
所有者/国 ONEWEBN/UK

Most Searched